Flag for Canada Weather past 2 weeks in Resolute Bay, Nunavut Territory, Canada

Now
-17 °F

Snow flurries. Passing clouds.


Feels Like: -41 °F
Forecast: -24 / -14 °F
Wind: 15 mph from North

Location: Resolute

Current Time: Mar 30, 2015 at 3:06:20 PM

Latest Report: Mar 30, 2015 at 2:00 PM


Visibility: 15 mi

Pressure: 29.72 "Hg

Humidity: 69%

Dew point: -24 °F

Location of Resolute BayLocation

Historic Weather in Resolute Bay — Graph

°F

Resolute Bay temperature yesterday

Maximum temperature yesterday: -22 °F (at 12:00 PM)
Minimum temperature yesterday: -29 °F (at 4:00 AM)
Average temperature yesterday: -25 °F

Past Weeks' High & Low Weather Summary

 TemperatureHumidityPressure
High3 °F (Mar 18, 1:00 PM)85% (Mar 18, 6:00 AM)30.37 "Hg (Mar 18, 6:00 AM)
Low-31 °F (Mar 27, 5:00 AM)59% (Mar 19, 9:00 PM)29.57 "Hg (Mar 16, 1:00 PM)
Average-16 °F73%29.95 "Hg
* Reported Mar 15 1:00 PM — Mar 30 1:00 PM, Resolute Bay, Weather by CustomWeather, © 2015

Note: Actual official high and low records may vary slightly from our data, if they occured in-between our weather recording intervals... More about our weather records

Advertising

Resolute Bay weather history for previous 24 hours

 ConditionsComfort  
Time TempWeatherWind HumidityBarometerVisibility
1:00 PM
Mon, Mar 30
-22 °FSnow flurries. Passing clouds.9 mph68%29.73 "Hg15 mi
12:00 PM-22 °FSnow flurries. Passing clouds.10 mph68%29.72 "Hg15 mi
11:00 AM-26 °FSnow flurries. Passing clouds.13 mph67%29.72 "Hg15 mi
10:00 AM-27 °FSnow flurries. Passing clouds.7 mph74%29.74 "Hg15 mi
9:00 AM-22 °FPassing clouds.10 mph75%29.75 "Hg15 mi
8:00 AM-27 °FPassing clouds.2 mph67%29.75 "Hg15 mi
7:00 AM-31 °FPassing clouds.10 mph74%29.76 "Hg15 mi
6:00 AM-29 °FPassing clouds.12 mph74%29.77 "Hg15 mi
5:00 AM-29 °FClear.7 mph67%29.78 "Hg15 mi
4:00 AM-27 °FClear.10 mph67%29.78 "Hg15 mi
3:00 AM-27 °FClear.14 mph67%29.77 "Hg15 mi
2:00 AM-27 °FClear.5 mph67%29.78 "Hg15 mi
1:00 AM-27 °FClear.13 mph74%29.79 "Hg15 mi
12:00 AM-26 °FClear.12 mph75%29.80 "Hg15 mi
11:00 PM
Sun, Mar 29
-24 °FClear.15 mph68%29.80 "Hg15 mi
10:00 PM-24 °FClear.16 mph75%29.82 "Hg15 mi
9:00 PM-24 °FPassing clouds.17 mph75%29.82 "Hg15 mi
8:00 PM-22 °FSunny.26 mph68%29.82 "Hg15 mi
7:00 PM-22 °FPassing clouds.23 mph68%29.83 "Hg15 mi
6:00 PM-22 °FSnow flurries. Passing clouds.18 mph75%29.83 "Hg15 mi
5:00 PM-22 °FSnow flurries. Low level haze.18 mph75%29.81 "Hg15 mi
4:00 PM-22 °FSnow flurries. Passing clouds.18 mph68%29.81 "Hg15 mi
3:00 PM-22 °FSnow flurries. Passing clouds.14 mph68%29.81 "Hg15 mi
Weather by CustomWeather, © 2015

See weather overviewHow to use our weather pages